EN

Hourly Weather Hobart

Today, 25 October, Sunday

Time Temperature Precipitation Wind Pressure Humidity
00:00 0°C° 0 mm 4 mps 746 mmHg 89%
01:00 -1°C° 0 mm 4 mps 747 mmHg 88%
02:00 -1°C° 0 mm 4 mps 748 mmHg 88%
03:00 0°C° 0 mm 3 mps 749 mmHg 88%
04:00 0°C° 0 mm 3 mps 749 mmHg 88%
05:00 +1°C° 0 mm 3 mps 750 mmHg 85%
06:00 +2°C° 0 mm 3 mps 751 mmHg 82%
07:00 +4°C° 0 mm 3 mps 752 mmHg 80%
08:00 +5°C° 0.1 mm 3 mps 753 mmHg 71%
09:00 +7°C° 0.1 mm 4 mps 753 mmHg 63%
10:00 +8°C° 0.1 mm 4 mps 754 mmHg 55%
11:00 +10°C° 0 mm 4 mps 754 mmHg 52%
12:00 +11°C° 0 mm 4 mps 754 mmHg 49%
13:00 +11°C° 0 mm 4 mps 754 mmHg 46%
14:00 +11°C° 0 mm 4 mps 755 mmHg 49%
15:00 +11°C° 0 mm 4 mps 755 mmHg 52%
16:00 +11°C° 0 mm 4 mps 755 mmHg 54%
17:00 +8°C° 0 mm 4 mps 756 mmHg 63%
18:00 +7°C° 0 mm 3 mps 757 mmHg 72%
19:00 +4°C° 0 mm 3 mps 757 mmHg 80%
20:00 +5°C° 0 mm 2 mps 758 mmHg 83%
21:00 +4°C° 0 mm 2 mps 758 mmHg 86%
22:00 +4°C° 0 mm 2 mps 758 mmHg 88%
23:00 +4°C° 0 mm 2 mps 758 mmHg 89%

Tomorrow, 26 October, Monday

Time Temperature Precipitation Wind Pressure Humidity
00:00 +3°C° 0 mm 2 mps 758 mmHg 89%
01:00 +3°C° 0 mm 2 mps 759 mmHg 90%
02:00 +3°C° 0 mm 2 mps 759 mmHg 90%
03:00 +3°C° 0 mm 1 mps 759 mmHg 90%
04:00 +3°C° 0 mm 1 mps 759 mmHg 91%
05:00 +5°C° 0 mm 1 mps 759 mmHg 84%
06:00 +6°C° 0 mm 1 mps 759 mmHg 78%
07:00 +8°C° 0 mm 1 mps 760 mmHg 72%
08:00 +10°C° 0 mm 1 mps 760 mmHg 65%
09:00 +12°C° 0 mm 1 mps 760 mmHg 58%
10:00 +14°C° 0 mm 2 mps 759 mmHg 51%
11:00 +14°C° 0 mm 2 mps 759 mmHg 50%
12:00 +14°C° 0 mm 2 mps 759 mmHg 50%
13:00 +14°C° 0 mm 3 mps 759 mmHg 50%
14:00 +13°C° 0 mm 3 mps 759 mmHg 51%
15:00 +13°C° 0 mm 3 mps 758 mmHg 53%
16:00 +12°C° 0 mm 3 mps 758 mmHg 55%
17:00 +10°C° 0 mm 3 mps 759 mmHg 64%
18:00 +9°C° 0 mm 2 mps 759 mmHg 74%
19:00 +8°C° 0 mm 1 mps 760 mmHg 83%
20:00 +7°C° 0 mm 1 mps 760 mmHg 85%
21:00 +7°C° 0 mm 1 mps 760 mmHg 87%
22:00 +5°C° 0 mm 0 mps 760 mmHg 90%
23:00 +5°C° 0 mm 0 mps 760 mmHg 91%

Day after tomorrow, 27 October, Tuesday

Time Temperature Precipitation Wind Pressure Humidity
00:00 +5°C° 0 mm 1 mps 760 mmHg 92%
01:00 +5°C° 0 mm 1 mps 760 mmHg 94%
02:00 +5°C° 0 mm 1 mps 760 mmHg 94%
03:00 +3°C° 0 mm 0 mps 760 mmHg 95%
04:00 +3°C° 0 mm 0 mps 760 mmHg 95%
05:00 +5°C° 0 mm 0 mps 760 mmHg 89%
06:00 +6°C° 0 mm 0 mps 760 mmHg 84%
07:00 +8°C° 0 mm 0 mps 760 mmHg 78%
08:00 +10°C° 0 mm 1 mps 760 mmHg 72%
09:00 +11°C° 0 mm 1 mps 760 mmHg 66%
10:00 +13°C° 0 mm 1 mps 760 mmHg 60%
11:00 +14°C° 0 mm 2 mps 759 mmHg 58%
12:00 +14°C° 0 mm 2 mps 759 mmHg 56%
13:00 +15°C° 0 mm 2 mps 759 mmHg 53%
14:00 +14°C° 0 mm 3 mps 758 mmHg 55%
15:00 +14°C° 0 mm 3 mps 758 mmHg 57%
16:00 +13°C° 0 mm 3 mps 758 mmHg 59%
17:00 +11°C° 0 mm 3 mps 758 mmHg 68%
18:00 +9°C° 0 mm 3 mps 758 mmHg 77%
19:00 +8°C° 0 mm 2 mps 759 mmHg 86%
20:00 +7°C° 0 mm 2 mps 759 mmHg 86%
21:00 +8°C° 0 mm 1 mps 759 mmHg 86%
22:00 +8°C° 0 mm 1 mps 759 mmHg 86%
23:00 +8°C° 0 mm 1 mps 759 mmHg 85%

28 October, Wednesday

Time Temperature Precipitation Wind Pressure Humidity
00:00 +8°C° 0 mm 1 mps 759 mmHg 84%
01:00 +8°C° 0 mm 1 mps 758 mmHg 83%
02:00 +8°C° 0 mm 1 mps 758 mmHg 82%
03:00 +8°C° 0 mm 1 mps 758 mmHg 82%
04:00 +8°C° 0 mm 1 mps 758 mmHg 81%
05:00 +9°C° 0 mm 1 mps 758 mmHg 78%
06:00 +10°C° 0 mm 1 mps 758 mmHg 75%
07:00 +9°C° 0 mm 0 mps 759 mmHg 71%
08:00 +11°C° 0 mm 1 mps 758 mmHg 68%
09:00 +12°C° 0 mm 2 mps 758 mmHg 64%
10:00 +14°C° 0 mm 2 mps 758 mmHg 60%
11:00 +14°C° 0 mm 2 mps 757 mmHg 58%
12:00 +15°C° 0 mm 2 mps 757 mmHg 57%
13:00 +14°C° 0 mm 3 mps 756 mmHg 55%
14:00 +14°C° 0 mm 3 mps 756 mmHg 57%
15:00 +14°C° 0 mm 3 mps 756 mmHg 59%
16:00 +14°C° 0 mm 3 mps 756 mmHg 60%
17:00 +12°C° 0 mm 3 mps 756 mmHg 70%
18:00 +11°C° 0 mm 3 mps 756 mmHg 79%
19:00 +9°C° 0 mm 2 mps 756 mmHg 88%
20:00 +8°C° 0 mm 2 mps 756 mmHg 90%
21:00 +8°C° 0 mm 2 mps 756 mmHg 92%
22:00 +8°C° 0 mm 1 mps 756 mmHg 94%
23:00 +8°C° 0 mm 1 mps 755 mmHg 93%

29 October, Thursday

Time Temperature Precipitation Wind Pressure Humidity
00:00 +8°C° 0 mm 1 mps 755 mmHg 93%
01:00 +8°C° 0 mm 1 mps 755 mmHg 92%
02:00 +8°C° 0 mm 1 mps 755 mmHg 90%
03:00 +9°C° 0 mm 1 mps 754 mmHg 88%
04:00 +8°C° 0 mm 0 mps 754 mmHg 86%
05:00 +9°C° 0 mm 0 mps 754 mmHg 82%
06:00 +9°C° 0 mm 0 mps 754 mmHg 79%
07:00 +10°C° 0 mm 0 mps 754 mmHg 75%
08:00 +12°C° 0 mm 1 mps 753 mmHg 69%
09:00 +13°C° 0 mm 1 mps 753 mmHg 62%
10:00 +14°C° 0 mm 2 mps 753 mmHg 55%
11:00 +14°C° 0 mm 2 mps 752 mmHg 55%
12:00 +15°C° 0 mm 2 mps 751 mmHg 54%
13:00 +14°C° 0 mm 3 mps 751 mmHg 53%
14:00 +14°C° 0 mm 3 mps 750 mmHg 55%
15:00 +14°C° 0 mm 3 mps 750 mmHg 57%
16:00 +14°C° 0 mm 3 mps 749 mmHg 59%
17:00 +12°C° 0 mm 3 mps 749 mmHg 68%
18:00 +11°C° 0 mm 3 mps 749 mmHg 78%
19:00 +9°C° 0 mm 2 mps 749 mmHg 88%
20:00 +8°C° 0 mm 2 mps 749 mmHg 90%
21:00 +9°C° 0 mm 1 mps 749 mmHg 93%
22:00 +8°C° 0 mm 1 mps 749 mmHg 96%
23:00 +8°C° 0 mm 1 mps 748 mmHg 96%

30 October, Friday

Time Temperature Precipitation Wind Pressure Humidity
00:00 +7°C° 0 mm 1 mps 748 mmHg 96%
01:00 +7°C° 0 mm 1 mps 747 mmHg 96%
02:00 +7°C° 0 mm 1 mps 747 mmHg 96%
03:00 +7°C° 0 mm 1 mps 747 mmHg 96%
04:00 +6°C° 0 mm 1 mps 747 mmHg 96%
05:00 +8°C° 0 mm 1 mps 747 mmHg 90%
06:00 +9°C° 0 mm 1 mps 747 mmHg 85%
07:00 +11°C° 0 mm 1 mps 747 mmHg 79%
08:00 +13°C° 0 mm 1 mps 747 mmHg 72%
09:00 +15°C° 0 mm 1 mps 746 mmHg 65%
10:00 +16°C° 0 mm 1 mps 746 mmHg 58%
11:00 +16°C° 0.1 mm 1 mps 746 mmHg 64%
12:00 +15°C° 0.1 mm 2 mps 746 mmHg 69%
13:00 +15°C° 0.1 mm 2 mps 745 mmHg 74%
14:00 +15°C° 0.2 mm 2 mps 745 mmHg 76%
15:00 +15°C° 0.2 mm 2 mps 745 mmHg 79%
16:00 +15°C° 0.2 mm 2 mps 745 mmHg 81%
17:00 +14°C° 0.2 mm 2 mps 745 mmHg 86%
18:00 +13°C° 0.2 mm 2 mps 745 mmHg 91%
19:00 +12°C° 0.2 mm 1 mps 746 mmHg 95%
20:00 +12°C° 0.1 mm 1 mps 746 mmHg 96%
21:00 +12°C° 0.1 mm 1 mps 746 mmHg 96%
22:00 +11°C° 0.1 mm 1 mps 746 mmHg 97%
23:00 +11°C° 0 mm 1 mps 746 mmHg 97%
Show more